Location: Drocourt
(49.0571°N, 1.7669°E)
Time: 02:59:43
(UTC+00:00)

Transit 4A - Pass Details

Date: 19 April 2024
Orbit: 871 x 971 km, 66.8° (Epoch: 19 May)

Event Time Altitude Azimuth Distance (km) Brightness Sun altitude
Rises 11:24:49 0° 163° (SSE) 3,536 11.5 52.0°
Reaches altitude 10° 11:28:09 10° 145° (SE) 2,580 11.0 52.1°
Maximum altitude 11:31:58 18° 105° (ESE) 2,065 10.2 52.2°
Drops below altitude 10° 11:35:44 10° 65° (ENE) 2,554 10.2 52.2°
Sets 11:39:00 0° 47° (NE) 3,486 10.7 52.3°
